Location: Seattle
(47.6064°N, 122.3308°W)
Time: 04:23:49
(UTC-08:00)

S-56A Canister/Altair - Pass Details

Date: 04 December 2020
Orbit: 633 x 2499 km, 38.9° (Epoch: 23 January)

Event Time Altitude Azimuth Distance (km) Brightness Sun altitude
Rises 18:19:12 0° 239° (WSW) 6,063 13.4 -19.5°
Reaches altitude 10° 18:23:36 10° 234° (SW) 4,912 12.6 -20.2°
Maximum altitude 18:36:07 47° 167° (SSE) 2,327 9.8 -22.3°
Enters shadow 18:41:08 29° 113° (ESE) 2,660 9.8 -23.1°
Drops below altitude 10° 18:44:59 10° 97° (E) 3,534 - -23.8°
Sets 18:47:37 0° 92° (E) 4,280 - -24.2°
